Montpelier, VT

7:18 AM EST on February 09, 2016 (GMT -0500)
Knapp State

Weather History for KMPV - May, 2014

Change the Weather History Date:

Friday, May 9, 2014

  Actual Average Record
Temperature  
Mean Temperature 50 °F 52 °F  
Max Temperature 55 °F 64 °F 89 °F (1979)
Min Temperature 44 °F 40 °F 21 °F (1956)
Degree Days  
Heating Degree Days 16 13  
Month to date heating degree days 132  
Since 1 July heating degree days 7836  
Cooling Degree Days 0 0  
Month to date cooling degree days 0 0  
Year to date cooling degree days 0 1  
Moisture  
Dew Point 38 °F    
Average Humidity 69    
Maximum Humidity 89    
Minimum Humidity 49    
Precipitation  
Precipitation T in 0.11 in 1.13 in (1982)
Month to date precipitation 0.77 0.93  
Year to date precipitation 10.23 10.47  
Sea Level Pressure  
Sea Level Pressure 30.17 in    
Wind  
Wind Speed 10 mph (South)    
Max Wind Speed 20 mph    
Max Gust Speed 26 mph    
Visibility 10 miles    
Events Rain    
T = Trace of Precipitation, MM = Missing Value Source: NWS Daily Summary

Daily Weather History Graph

Daily Weather History Graph

Search for Another Location

Airport or City:

Trip Planner

Search our weather history database for the weather conditions in past years. The results will help you decide how hot, cold, wet, or windy it might be!

Date:

Astronomy

May. 09, 2014 Rise Set
Actual Time 5:30 AM EDT 8:03 PM EDT
Civil Twilight 4:57 AM EDT 8:36 PM EDT
Nautical Twilight 4:16 AM EDT 9:17 PM EDT
Astronomical Twilight 3:30 AM EDT 10:04 PM EDT
Moon 2:47 PM EDT 2:43 AM EDT
Length of Visible Light 15h 38m
Length of Day
14h 32m
Waxing Gibbous, 73% of the Moon is Illuminated
May 9
Waxing Gibbous
May 14
Full
May 21
Last Quarter
May 28
New
Jun 5
First Quarter

Hourly Weather History & Observations

Time (EDT) Temp. Windchill Dew Point Humidity Pressure Visibility Wind Dir Wind Speed Gust Speed Precip Events Conditions
12:51 AM 48.9 °F - 30.9 °F 50% 30.22 in 10.0 mi Calm Calm - N/A   Overcast
1:51 AM 46.9 °F - 30.9 °F 54% 30.21 in 10.0 mi Calm Calm - N/A   Clear
2:51 AM 44.1 °F 42.5 °F 30.0 °F 58% 30.20 in 10.0 mi SSE 3.5 mph - N/A   Clear
3:51 AM 46.9 °F - 28.0 °F 48% 30.22 in 10.0 mi Calm Calm - 0.00 in Rain Light Rain
4:51 AM 44.1 °F - 37.0 °F 76% 30.20 in 10.0 mi Calm Calm - 0.00 in   Overcast
5:51 AM 48.9 °F - 35.1 °F 59% 30.22 in 10.0 mi South 4.6 mph - N/A   Overcast
6:51 AM 50.0 °F - 35.1 °F 57% 30.22 in 10.0 mi SSW 5.8 mph - N/A   Overcast
7:51 AM 50.0 °F - 32.0 °F 50% 30.23 in 10.0 mi SSW 4.6 mph - N/A   Overcast
8:21 AM 51.1 °F - 33.1 °F 50% 30.21 in 10.0 mi South 10.4 mph - N/A   Overcast
8:51 AM 51.1 °F - 33.1 °F 50% 30.23 in 10.0 mi South 10.4 mph - N/A   Overcast
9:27 AM 53.1 °F - 34.0 °F 48% 30.22 in 10.0 mi South 10.4 mph - N/A   Overcast
9:51 AM 51.1 °F - 33.1 °F 50% 30.24 in 10.0 mi South 11.5 mph - N/A   Overcast
10:51 AM 50.0 °F - 32.0 °F 50% 30.21 in 10.0 mi South 13.8 mph 20.7 mph N/A   Overcast
11:20 AM 48.9 °F - 34.0 °F 56% 30.22 in 10.0 mi South 8.1 mph - N/A   Overcast
11:51 AM 48.9 °F - 35.1 °F 59% 30.24 in 10.0 mi South 10.4 mph - N/A   Overcast
12:01 PM 50.0 °F - 35.6 °F 58% 30.21 in 10.0 mi South 10.4 mph 17.3 mph N/A   Overcast
12:46 PM 51.8 °F - 35.6 °F 54% 30.21 in 10.0 mi SE 12.7 mph - N/A   Overcast
12:51 PM 52.0 °F - 36.0 °F 54% 30.22 in 10.0 mi SSE 10.4 mph - N/A   Overcast
1:51 PM 54.0 °F - 37.9 °F 55% 30.19 in 10.0 mi South 15.0 mph 25.3 mph N/A   Overcast
2:33 PM 55.0 °F - 37.9 °F 53% 30.15 in 10.0 mi South 13.8 mph - N/A   Overcast
2:51 PM 55.0 °F - 39.0 °F 55% 30.17 in 10.0 mi South 15.0 mph - N/A   Overcast
3:51 PM 54.0 °F - 39.0 °F 57% 30.15 in 10.0 mi South 16.1 mph - N/A   Overcast
4:51 PM 53.1 °F - 41.0 °F 64% 30.14 in 10.0 mi SSE 13.8 mph 24.2 mph N/A   Overcast
5:51 PM 52.0 °F - 43.0 °F 71% 30.12 in 10.0 mi South 15.0 mph - N/A   Overcast
6:51 PM 51.1 °F - 45.0 °F 80% 30.11 in 10.0 mi South 9.2 mph - N/A   Overcast
7:28 PM 51.1 °F - 45.0 °F 80% 30.08 in 10.0 mi South 6.9 mph - N/A   Overcast
7:51 PM 51.1 °F - 46.0 °F 83% 30.09 in 10.0 mi South 6.9 mph - N/A   Overcast
8:51 PM 51.1 °F - 46.9 °F 86% 30.09 in 10.0 mi South 8.1 mph - N/A   Overcast
9:06 PM 50.0 °F - 46.9 °F 89% 30.07 in 10.0 mi South 10.4 mph 17.3 mph N/A   Overcast
9:51 PM 51.1 °F - 48.0 °F 89% 30.08 in 10.0 mi South 9.2 mph - N/A   Overcast
10:51 PM 51.1 °F - 48.9 °F 92% 30.05 in 10.0 mi South 9.2 mph - N/A   Overcast
11:51 PM 52.0 °F - 48.9 °F 89% 30.05 in 10.0 mi SSE 6.9 mph - N/A   Overcast